Date String (YYYY-MM-DD hh:mm:ss) UTC,Instrument flags,Ambient pressure (hPa),Sample flow (lpm),Bypass flow (lpm),Sample temperature (°C),Ambient temperature (°C),ASC tube jacket temperature (°C),LED temperature (°C),Box temperature (°C),Sample RH (%),Span deviation,Mass concentration (μg/m³),Mass concentration (μg/m³),Mass concentration (μg/m³)
DateTimeUTC,F1_M11,P_M11,Q1_M11,Q2_M11,T1_M11,T2_M11,T3_M11,T4_M11,T5_M11,U1_M11,ZSPAN_M11,X0_M11,X2_M11,X1_M11
2022-12-21 11:00:00,,0821.0,4.96,0.00,21.9,21.6,00.0,30.6,23.7,10.4,0000.0,0003.39,0001.15,0000.77
2022-12-21 11:01:00,,0821.0,5.04,0.00,21.9,21.3,00.0,30.6,23.7,10.4,0000.0,0003.53,0001.17,0000.78
2022-12-21 11:02:00,,0821.0,4.99,0.00,21.9,21.0,00.0,30.7,23.6,10.4,0000.0,0003.48,0001.13,0000.78
2022-12-21 11:03:00,,0820.9,4.97,0.00,21.8,20.8,00.0,30.7,23.6,10.4,0000.0,0003.46,0001.13,0000.78
2022-12-21 11:04:00,,0821.0,5.02,0.00,21.8,20.7,00.0,30.7,23.5,10.4,0000.0,0003.43,0001.14,0000.79
2022-12-21 11:05:00,,0820.9,5.02,0.00,21.8,20.6,00.0,30.7,23.5,10.2,0000.0,0003.38,0001.13,0000.78
2022-12-21 11:06:00,,0820.9,4.96,0.00,21.8,20.5,00.0,30.7,23.5,10.4,0000.0,0003.24,0001.08,0000.77
2022-12-21 11:07:00,,0820.9,5.01,0.00,21.8,20.4,00.0,30.7,23.5,10.5,0000.0,0003.11,0001.05,0000.77
2022-12-21 11:08:00,,0820.9,5.02,0.00,21.8,20.3,00.0,30.7,23.5,10.4,0000.0,0003.12,0001.05,0000.77
2022-12-21 11:09:00,,0820.9,4.97,0.00,21.7,20.3,00.0,30.7,23.4,10.4,0000.0,0003.39,0001.09,0000.77
2022-12-21 11:10:00,,0820.9,4.99,0.00,21.7,20.2,00.0,30.6,23.4,10.3,0000.0,0003.31,0001.10,0000.77
2022-12-21 11:11:00,,0820.9,5.03,0.00,21.7,20.2,00.0,30.6,23.3,10.3,0000.0,0002.77,0001.11,0000.77
2022-12-21 11:12:00,,0820.9,4.97,0.00,21.7,20.7,00.0,30.6,23.4,10.3,0000.0,0002.65,0001.10,0000.76
2022-12-21 11:13:00,,0820.8,5.01,0.00,21.8,21.8,00.0,30.6,23.7,10.3,0000.0,0002.64,0001.11,0000.76
2022-12-21 11:14:00,,0820.8,4.96,0.00,21.9,22.0,00.0,30.6,23.8,10.2,0000.0,0002.69,0001.14,0000.76
2022-12-21 11:15:00,,0820.7,5.03,0.00,21.9,21.5,00.0,30.7,23.7,10.2,0000.0,0002.72,0001.14,0000.76
2022-12-21 11:16:00,,0820.7,4.98,0.00,21.9,20.9,00.0,30.7,23.6,10.2,0000.0,0002.78,0001.14,0000.76
2022-12-21 11:17:00,,0820.7,5.00,0.00,21.8,20.5,00.0,30.7,23.5,10.2,0000.0,0002.77,0001.14,0000.76
2022-12-21 11:18:00,,0820.7,5.03,0.00,21.8,20.3,00.0,30.7,23.4,10.3,0000.0,0002.77,0001.15,0000.76
2022-12-21 11:19:00,,0820.7,5.01,0.00,21.7,20.1,00.0,30.7,23.3,10.3,0000.0,0002.77,0001.15,0000.76
2022-12-21 11:20:00,,0820.7,4.96,0.00,21.7,19.9,00.0,30.7,23.2,10.3,0000.0,0002.61,0001.12,0000.75
2022-12-21 11:21:00,,0820.7,5.03,0.00,21.6,19.8,00.0,30.6,23.2,10.4,0000.0,0001.98,0001.10,0000.75
2022-12-21 11:22:00,,0820.6,5.03,0.00,21.6,19.7,00.0,30.6,23.1,10.4,0000.0,0001.93,0001.09,0000.76
2022-12-21 11:23:00,,0820.6,5.00,0.00,21.5,19.5,00.0,30.6,23.1,10.4,0000.0,0001.86,0001.06,0000.76
2022-12-21 11:24:00,,0820.6,4.97,0.00,21.5,19.5,00.0,30.6,23.0,10.4,0000.0,0001.93,0001.06,0000.76
2022-12-21 11:25:00,,0820.6,5.01,0.00,21.5,19.8,00.0,30.5,23.1,10.5,0000.0,0003.18,0001.06,0000.77
2022-12-21 11:26:00,,0820.6,5.02,0.00,21.5,21.1,00.0,30.5,23.3,10.6,0000.0,0003.51,0001.03,0000.76
2022-12-21 11:27:00,,0820.6,4.98,0.00,21.7,22.0,00.0,30.5,23.6,10.6,0000.0,0003.45,0001.03,0000.76
2022-12-21 11:28:00,,0820.6,4.97,0.00,21.7,21.6,00.0,30.5,23.6,10.5,0000.0,0003.57,0001.06,0000.76
2022-12-21 11:29:00,,0820.6,5.04,0.00,21.7,21.1,00.0,30.5,23.5,10.5,0000.0,0003.57,0001.07,0000.76
2022-12-21 11:30:00,,0820.6,5.02,0.00,21.7,20.8,00.0,30.6,23.4,10.5,0000.0,0003.57,0001.08,0000.76
2022-12-21 11:31:00,,0820.6,4.95,0.00,21.7,20.6,00.0,30.5,23.3,10.4,0000.0,0003.58,0001.08,0000.77
2022-12-21 11:32:00,,0820.7,5.01,0.00,21.7,20.4,00.0,30.5,23.2,10.4,0000.0,0004.20,0001.07,0000.77
2022-12-21 11:33:00,,0820.7,5.03,0.00,21.6,20.3,00.0,30.5,23.2,10.4,0000.0,0004.11,0001.03,0000.75
2022-12-21 11:34:00,,0820.8,4.98,0.00,21.6,20.3,00.0,30.5,23.2,10.3,0000.0,0004.07,0001.01,0000.75
2022-12-21 11:35:00,,0820.8,4.98,0.00,21.6,20.2,00.0,30.5,23.2,10.3,0000.0,0004.06,0001.03,0000.76
2022-12-21 11:36:00,,0820.7,5.02,0.00,21.6,20.1,00.0,30.5,23.1,10.3,0000.0,0002.90,0001.00,0000.75
2022-12-21 11:37:00,,0820.7,5.03,0.00,21.6,20.6,00.0,30.4,23.2,10.3,0000.0,0002.33,0001.01,0000.75
2022-12-21 11:38:00,,0820.7,4.96,0.00,21.7,21.7,00.0,30.4,23.5,10.3,0000.0,0002.36,0001.01,0000.75
2022-12-21 11:39:00,,0820.7,5.02,0.00,21.8,22.1,00.0,30.5,23.7,10.3,0000.0,0002.65,0001.00,0000.76
2022-12-21 11:40:00,,0820.8,4.98,0.00,21.8,21.6,00.0,30.5,23.6,10.3,0000.0,0002.59,0000.97,0000.76
2022-12-21 11:41:00,,0820.8,5.04,0.00,21.8,21.1,00.0,30.6,23.5,10.3,0000.0,0002.61,0000.98,0000.76
2022-12-21 11:42:00,,0820.6,4.94,0.00,21.7,20.8,00.0,30.6,23.4,10.3,0000.0,0002.61,0000.99,0000.76
2022-12-21 11:43:00,,0820.7,5.03,0.00,21.7,20.6,00.0,30.6,23.3,10.3,0000.0,0002.03,0000.98,0000.76
2022-12-21 11:44:00,,0820.7,5.03,0.00,21.7,20.4,00.0,30.5,23.2,10.3,0000.0,0002.02,0001.02,0000.77
2022-12-21 11:45:00,,0820.5,4.95,0.00,21.6,20.2,00.0,30.5,23.2,10.3,0000.0,0002.04,0001.04,0000.77
2022-12-21 11:46:00,,0820.6,5.02,0.00,21.6,20.1,00.0,30.5,23.1,10.3,0000.0,0002.10,0001.07,0000.77
2022-12-21 11:47:00,,0820.6,5.03,0.00,21.6,20.1,00.0,30.5,23.1,10.3,0000.0,0002.21,0001.13,0000.78
2022-12-21 11:48:00,,0820.6,4.97,0.00,21.6,20.8,00.0,30.5,23.4,10.3,0000.0,0002.20,0001.14,0000.80
2022-12-21 11:49:00,,0820.6,5.02,0.00,21.8,22.0,00.0,30.5,23.7,10.1,0000.0,0002.21,0001.15,0000.81
2022-12-21 11:50:00,,0820.6,4.97,0.00,21.9,22.0,00.0,30.5,23.8,10.1,0000.0,0001.96,0001.17,0000.81
2022-12-21 11:51:00,,0820.6,5.03,0.00,21.9,21.6,00.0,30.6,23.8,10.0,0000.0,0002.06,0001.20,0000.82
2022-12-21 11:52:00,,0820.5,4.95,0.00,21.9,21.1,00.0,30.6,23.6,10.0,0000.0,0002.15,0001.24,0000.83
2022-12-21 11:53:00,,0820.4,5.01,0.00,21.8,20.8,00.0,30.6,23.4,10.0,0000.0,0002.23,0001.28,0000.84
2022-12-21 11:54:00,,0820.4,5.02,0.00,21.8,20.5,00.0,30.6,23.4,10.0,0000.0,0002.24,0001.29,0000.85
2022-12-21 11:55:00,,0820.4,4.98,0.00,21.7,20.2,00.0,30.6,23.3,10.1,0000.0,0002.22,0001.30,0000.86
2022-12-21 11:56:00,,0820.4,4.98,0.00,21.7,20.1,00.0,30.6,23.2,10.1,0000.0,0002.25,0001.31,0000.87
2022-12-21 11:57:00,,0820.5,5.03,0.00,21.7,20.3,00.0,30.6,23.3,10.2,0000.0,0002.28,0001.30,0000.86
2022-12-21 11:58:00,,0820.4,5.01,0.00,21.7,21.3,00.0,30.5,23.5,10.0,0000.0,0002.26,0001.27,0000.85
2022-12-21 11:59:00,,0820.4,4.98,0.00,21.8,22.1,00.0,30.6,23.8,10.0,0000.0,0002.17,0001.21,0000.83
